Regional Weather Roundup
Issued by NWS

Home | Current Version | Previous Version | Graphics & Text | Print | Product List | Glossary On
Versions: 1 2 3 4 5 6 7 8 9 10 11 12 13 14 15 16 17 18 19 20 21 22 23 24 25 26 27 28 29 30 31 32 33 34 35 36 37 38 39 40 41 42 43 44 45 46 47 48 49 50
000
ASUS43 KLOT 060421
RWRIL

ILLINOIS REGIONAL WEATHER ROUNDUP
NATIONAL WEATHER SERVICE CHICAGO/ROMEOVILLE IL
1100 PM CDT TUE MAY 05 2015

NOTE: "FAIR" INDICATES FEW OR NO CLOUDS BELOW 12,000 FEET WITH NO
SIGNIFICANT WEATHER AND/OR OBSTRUCTIONS TO VISIBILITY.

* THESE STATIONS ARE NOT UNDER NWS QUALITY CONTROL. THEY ALSO MAY NOT
  REPORT WEATHER SUCH AS PRECIPITATION OR FOG.

ILZ001-002-007-009-015-016-024-060500-
NORTHWEST ILLINOIS

CITY           SKY/WX    TMP DP  RH WIND       PRES   REMARKS
MOLINE         CLOUDY    61  58  90 E12       30.15S FOG
STERLING*      CLOUDY    54  50  87 E13       30.18S
SAVANNA*       CLOUDY    55  52  90 E9        30.19F
$$

ILZ003-004-008-010-011-017-018-060500-
NORTH CENTRAL ILLINOIS

CITY           SKY/WX    TMP DP  RH WIND       PRES   REMARKS
ROCKFORD       CLOUDY    52  49  89 E8        30.22F FOG
FREEPORT*      CLOUDY    51  49  95 E12       30.22S FOG
ROCHELLE*      CLOUDY    52  51  97 E8        30.21S FOG
DE KALB*       CLOUDY    50  49  98 NE8       30.20F FOG
PERU*          PTCLDY    55  52  90 E9        30.18F FOG
$$

ILZ005-006-012>014-019>023-060500-
NORTHEAST ILLINOIS

CITY           SKY/WX    TMP DP  RH WIND       PRES   REMARKS
CHICAGO-OHARE  FOG       48  47  96 NE7       30.21F VSB 3/4
CHICAGO-MIDWAY CLOUDY    52  49  89 NE7       30.21S FOG
AURORA         CLOUDY    53  50  89 NE9       30.19F FOG
LANSING*       CLOUDY    48  46  93 N6        30.21S FOG
JOLIET*        PTCLDY    55  54  95 NE5       30.19S FOG
WAUKEGAN       CLOUDY    45  44  97 NE8       30.23F
DUPAGE AIRPORT FOG       51  50  96 NE8       30.20F VSB 1/4
KANKAKEE*      CLOUDY    57  56  95 NE5       30.19S FOG
WHEELING       FOG       46  45  96 NE6       30.24F VSB 1
MORRIS*        CLOUDY    55  54  95 CALM      30.16F FOG
ROMEOVILLE*    CLOUDY    53  52  96 NE9       30.19S FOG
NORTHERLY ISL    N/A     46  45  96 N8          N/A
$$

LMZ740>746-060500-
SOUTHERN LAKE MICHIGAN

STATION/POSITION SKY/WX   TEMP    WIND        PRES    VSBY  WAVE
                          AIR SEA DIR/SP/G                  HT/PER
                          (F)     (DEG/KT/KT) (MB)    (MI)  (FT/S)
HARRISON CRIB              44     360/ 10/ 11   N/A
BURNHAM HARBOR             46     350/ 10/ 12   N/A
CALUMET HARBOR             46     340/  8/ 11   N/A
BURNS HARBOR               50     280/  2/  3 1023.4R
MICHIGAN CITY              56      70/  6/  8   N/A
MICHIGAN CITY 6N           51 50   60/  6/  8   N/A           1/ 4
ST. JOSEPH                 53 50  140/  8/ 10   N/A           1/ 3
$$

ILZ025>027-034>036-040-047-049-050-058-095>099-060500-
WEST-CENTRAL ILLINOIS

CITY           SKY/WX    TMP DP  RH WIND       PRES   REMARKS
QUINCY         PTCLDY    70  57  63 SE6       30.11S
GALESBURG*     MOCLDY    64  62  93 E10       30.14S FOG
MACOMB*        PTCLDY    66  64  91 E9        30.15F
JACKSONVILLE*  PTCLDY    73  56  55 S5        30.13S
PITTSFIELD*    PTCLDY    71  57  61 S3        30.13S
$$

ILZ028>032-037-038-041>044-048-051>054-059>061-060500-
CENTRAL ILLINOIS

CITY           SKY/WX    TMP DP  RH WIND       PRES   REMARKS
PONTIAC        PTCLDY    60  59  96 E7        30.19R FOG
BLOOMINGTON    MOCLDY    63  63 100 NE10      30.18S FOG
DECATUR        MOCLDY    71  55  56 S3        30.16R
PEORIA         CLEAR     67  62  84 E10       30.15S HAZE
LACON*         CLEAR     58  56  91 E3        30.17F FOG
LINCOLN*       PTCLDY    67  62  84 E5        30.13F
SPRINGFIELD    PTCLDY    71  54  54 S6        30.14S
TAYLORVILLE    PTCLDY    68  54  60 S5        30.15S
$$

ILZ033-039-045-046-055>057-062-063-060500-
EAST-CENTRAL ILLINOIS

CITY           SKY/WX    TMP DP  RH WIND       PRES   REMARKS
CHAMPAIGN      CLEAR     67  61  81 NE8       30.16S
DANVILLE*      PTCLDY    64  61  90 E3        30.14F
RANTOUL*       PTCLDY    66  62  85 NE5       30.16F
MATTOON        PTCLDY    71  55  56 S6        30.16R
PARIS*         CLEAR     65  55  71 S6        30.17S
$$

ILZ079-100>102-060500-
SOUTHWEST ILLINOIS

CITY           SKY/WX    TMP DP  RH WIND       PRES   REMARKS
ALTON          CLEAR     67  60  77 SE5       30.14F
CAHOKIA*       PTCLDY    72  58  61 SE7       30.13S
SPARTA*        PTCLDY    63  61  92 SE3       30.16S
$$

ILZ064>066-069>071-074>076-080>082-084>086-088>090-092>094-060500-
SOUTH-CENTRAL ILLINOIS

CITY           SKY/WX    TMP DP  RH WIND       PRES   REMARKS
CARBONDALE     CLOUDY    70  60  70 CALM      30.16S
CAIRO*         CLEAR     65  57  75 CALM      30.16S
EFFINGHAM*     CLEAR     68  53  57 S3        30.18S
MARION         CLOUDY    73  59  60 SE5       30.17S
MT. VERNON     CLOUDY   N/A N/A N/A CALM      30.17S
CENTRALIA*     PTCLDY    64  58  82 CALM      30.16F
SALEM*         PTCLDY    69  58  67 CALM      30.17F
METROPOLIS*    CLEAR     64  59  85 CALM      30.17R
$$

ILZ067-068-072-073-078-083-087-091-060500-
SOUTHEAST ILLINOIS

CITY           SKY/WX    TMP DP  RH WIND       PRES   REMARKS
LAWRENCEVILLE  PTCLDY    65  55  70 S8        30.18S
FLORA*         CLOUDY    69  56  64 S7        30.17F
FAIRFIELD*     MOCLDY    64  58  83 CALM      30.16F
HARRISBURG*    PTCLDY    64  57  76 CALM      30.18S
ROBINSON*      PTCLDY    66  54  66 S5        30.18S
CARMI*         CLOUDY    65  52  62 S3        30.17F
$$

ABBREVIATIONS USED IN REMARKS
   TC - TEMPERATURE IN CELSIUS
  WCI - WIND CHILL INDEX
   HX - HEAT INDEX
  VSB - VISIBILITY
$$



USA.gov is the U.S. government's official web portal to all federal, state and local government web resources and services.